{"data":{"norad_id":59488,"epoch":"2026-09-20T12:16:38.637984Z","epoch_age_seconds":164042,"freshness":"FRESH","line1":"1 59488U 24071E   26263.51155831  .00000974  00000+0  44936-4 0  9995","line2":"2 59488  43.0035 327.0586 0001128 254.5779 105.4948 15.27573670137918","mean_motion":15.2757367,"eccentricity":0.0001128,"inclination_deg":43.0035,"raan_deg":327.0586,"arg_perigee_deg":254.5779,"mean_anomaly_deg":105.4948,"bstar":4.4936e-5,"rev_number":13791,"period_min":94.267139338687,"perigee_km":482.29410647263,"apogee_km":483.841994332,"semimajor_km":6861.2050504023,"source":"CELESTRAK","updated_at":"2026-09-22T09:00:48.952989Z"}}